Location: Dampvalley
(47.9094°N, 6.1967°E)
Time: 02:03:08
(UTC+00:00)

N. Korean satellite - Pass Details

Date: 09 December 2022
Orbit: 408 x 444 km, 97.3° (Epoch: 28 January)

Event Time Altitude Azimuth Distance (km) Brightness Sun altitude
Rises 06:22:32 0° 352° (N) 2,504 9.9 -8.1°
Reaches altitude 10° 06:25:55 10° 317° (NW) 1,610 8.6 -7.6°
Maximum altitude 06:26:57 11° 299° (WNW) 1,538 8.4 -7.4°
Drops below altitude 10° 06:27:58 10° 282° (WNW) 1,597 8.6 -7.3°
Sets 06:31:17 0° 245° (WSW) 2,447 9.8 -6.8°
